Location: Bourg-d�Oueil
(42.8588°N, 0.4991°E)
Time: 20:09:28
(UTC+00:00)

Cosmos 1544 Rocket - Pass Details

Date: 16 June 2021
Orbit: 604 x 631 km, 82.5° (Epoch: 31 July)

Event Time Altitude Azimuth Distance (km) Brightness Sun altitude
Rises 21:59:58 0° 348° (NNW) 2,934 8.4 -18.3°
Reaches altitude 10° 22:02:14 10° 345° (NNW) 2,020 7.4 -18.5°
Maximum altitude 22:06:39 62° 265° (W) 711 3.9 -18.9°
Enters shadow 22:08:30 33° 197° (SSW) 1,064 4.4 -19.1°
